Location: Gaspur (historical)
(33.7814°N, 118.2212°W)
Time: 08:28:10
(UTC+00:00)

H-2A R/B - Pass Details

Date: 29 October 2020
Orbit: 500 x 540 km, 97.3° (Epoch: 22 November)

Event Time Altitude Azimuth Distance (km) Brightness Sun altitude
Rises 13:12:49 0° 17° (NNE) 2,655 6.4 -12.4°
Reaches altitude 10° 13:14:58 10° 22° (NNE) 1,770 5.6 -12.0°
Maximum altitude 13:18:42 53° 100° (E) 657 3.7 -11.2°
Drops below altitude 10° 13:22:28 10° 177° (S) 1,778 5.6 -10.5°
Sets 13:24:37 0° 182° (S) 2,670 6.4 -10.0°
